| time (UTC) | temp C | wind direction | speed KPH | gust KPH | rain 1hr cm | rain 24hr cm | rain mn cm | humidity % | barometer mb |
| 20260506044527 | 6 | 181 | 1.6 | 9.7 | 0.00 | 0.00 | 0.00 | 83 | 1015.0 |
| 20260506043019 | 6 | 169 | 1.6 | 8.0 | 0.00 | 0.00 | 0.00 | 82 | 1014.9 |
| 20260506041519 | 6 | 136 | 3.2 | 8.0 | 0.00 | 0.00 | 0.00 | 82 | 1015.0 |
| 20260506040037 | 6 | 175 | 1.6 | 6.4 | 0.00 | 0.00 | 0.00 | 81 | 1014.9 |
| 20260506034514 | 6 | 155 | 1.6 | 9.7 | 0.00 | 0.00 | 0.00 | 81 | 1015.0 |
| 20260506033013 | 6 | 148 | 1.6 | 11.3 | 0.00 | 0.00 | 0.00 | 80 | 1015.0 |
| 20260506031526 | 6 | 186 | 1.6 | 11.3 | 0.00 | 0.00 | 0.00 | 80 | 1015.1 |
| 20260506030010 | 7 | 149 | 1.6 | 11.3 | 0.00 | 0.00 | 0.00 | 80 | 1015.1 |
| 20260506024516 | 7 | 165 | 3.2 | 9.7 | 0.00 | 0.00 | 0.00 | 80 | 1015.0 |
| 20260506023006 | 7 | 153 | 1.6 | 8.0 | 0.00 | 0.00 | 0.00 | 80 | 1015.2 |
| 20260506021503 | 7 | 146 | 0.0 | 3.2 | 0.00 | 0.00 | 0.00 | 79 | 1015.2 |
| 20260506020002 | 7 | 153 | 0.0 | 8.0 | 0.00 | 0.00 | 0.00 | 79 | 1015.2 |
| 20260506014501 | 7 | 235 | 3.2 | 8.0 | 0.00 | 0.00 | 0.00 | 78 | 1015.2 |
| 20260506013058 | 7 | 163 | 1.6 | 12.9 | 0.00 | 0.00 | 0.00 | 78 | 1015.4 |
| 20260506011606 | 7 | 159 | 0.0 | 6.4 | 0.00 | 0.00 | 0.00 | 81 | 1015.3 |
| 20260506010058 | 7 | 320 | 0.0 | 9.7 | 0.00 | 0.00 | 0.00 | 80 | 1015.5 |
| 20260506004553 | 7 | 159 | 1.6 | 6.4 | 0.00 | 0.00 | 0.00 | 80 | 1015.4 |
| 20260506003052 | 7 | 159 | 1.6 | 9.7 | 0.00 | 0.00 | 0.00 | 81 | 1015.4 |
| 20260506001550 | 8 | 161 | 1.6 | 11.3 | 0.00 | 0.00 | 0.00 | 81 | 1015.3 |
| 20260506000047 | 8 | 83 | 0.0 | 8.0 | 0.00 | 0.00 | 0.00 | 80 | 1015.4 |
| 20260505234556 | 8 | 146 | 1.6 | 8.0 | 0.00 | 0.00 | 0.00 | 79 | 1015.5 |
| 20260505233050 | 8 | 330 | 0.0 | 9.7 | 0.00 | 0.00 | 0.00 | 78 | 1015.7 |
| 20260505231550 | 8 | 121 | 1.6 | 11.3 | 0.00 | 0.00 | 0.00 | 79 | 1015.5 |
| 20260505230040 | 8 | 155 | 1.6 | 8.0 | 0.00 | 0.00 | 0.00 | 80 | 1015.7 |
| 20260505224540 | 8 | 187 | 3.2 | 11.3 | 0.00 | 0.00 | 0.00 | 79 | 1015.6 |
| 20260505223049 | 9 | 200 | 3.2 | 8.0 | 0.00 | 0.00 | 0.00 | 79 | 1015.6 |
| 20260505221539 | 9 | 124 | 1.6 | 11.3 | 0.00 | 0.00 | 0.00 | 79 | 1015.5 |
| 20260505220041 | 10 | 308 | 1.6 | 9.7 | 0.00 | 0.00 | 0.00 | 80 | 1015.4 |
| 20260505214547 | 10 | 141 | 0.0 | 12.9 | 0.00 | 0.00 | 0.00 | 80 | 1015.3 |
| 20260505213038 | 10 | 154 | 4.8 | 9.7 | 0.00 | 0.00 | 0.00 | 79 | 1015.3 |
| 20260505211537 | 10 | 326 | 1.6 | 12.9 | 0.00 | 0.00 | 0.00 | 78 | 1015.3 |
| 20260505210036 | 10 | 343 | 1.6 | 9.7 | 0.00 | 0.00 | 0.00 | 78 | 1015.2 |
| 20260505204536 | 10 | 336 | 3.2 | 14.5 | 0.00 | 0.00 | 0.00 | 77 | 1015.1 |
| 20260505203035 | 10 | 356 | 4.8 | 11.3 | 0.00 | 0.00 | 0.00 | 76 | 1015.0 |
| 20260505201535 | 11 | 131 | 1.6 | 6.4 | 0.00 | 0.00 | 0.00 | 75 | 1014.9 |
| 20260505200040 | 11 | 340 | 3.2 | 11.3 | 0.00 | 0.00 | 0.00 | 74 | 1014.8 |
| 20260505194533 | 12 | 134 | 1.6 | 8.0 | 0.00 | 0.00 | 0.00 | 74 | 1014.5 |
| 20260505193032 | 12 | 178 | 0.0 | 8.0 | 0.00 | 0.00 | 0.00 | 71 | 1014.3 |
| 20260505191532 | 12 | 173 | 0.0 | 6.4 | 0.00 | 0.00 | 0.00 | 67 | 1014.1 |
| 20260505190037 | 12 | 167 | 1.6 | 8.0 | 0.00 | 0.00 | 0.00 | 66 | 1014.0 |
| 20260505184531 | 12 | 165 | 3.2 | 11.3 | 0.00 | 0.00 | 0.00 | 66 | 1013.8 |
| 20260505183032 | 12 | 150 | 3.2 | 12.9 | 0.00 | 0.00 | 0.00 | 64 | 1013.6 |
| 20260505181529 | 13 | 205 | 3.2 | 11.3 | 0.00 | 0.00 | 0.00 | 65 | 1013.7 |
| 20260505180028 | 13 | 212 | 3.2 | 8.0 | 0.00 | 0.00 | 0.00 | 65 | 1013.6 |
| 20260505174537 | 13 | 202 | 3.2 | 9.7 | 0.00 | 0.00 | 0.00 | 63 | 1013.6 |
| 20260505173026 | 13 | 175 | 4.8 | 12.9 | 0.00 | 0.00 | 0.00 | 63 | 1013.7 |
| 20260505171527 | 13 | 180 | 4.8 | 11.3 | 0.00 | 0.00 | 0.00 | 63 | 1013.9 |
| 20260505170025 | 13 | 216 | 4.8 | 12.9 | 0.00 | 0.00 | 0.00 | 64 | 1013.8 |
| 20260505164524 | 13 | 184 | 4.8 | 12.9 | 0.00 | 0.00 | 0.00 | 64 | 1013.8 |
| 20260505163023 | 13 | 149 | 4.8 | 12.9 | 0.00 | 0.00 | 0.00 | 63 | 1013.7 |
| 20260505161523 | 13 | 133 | 6.4 | 16.1 | 0.00 | 0.00 | 0.00 | 63 | 1013.7 |
| 20260505153019 | 14 | 144 | 4.8 | 12.9 | 0.00 | 0.00 | 0.00 | 62 | 1013.9 |
| 20260505151520 | 14 | 161 | 4.8 | 14.5 | 0.00 | 0.00 | 0.00 | 62 | 1013.9 |
| 20260505124511 | 15 | 204 | 3.2 | 8.0 | 0.00 | 0.00 | 0.00 | 61 | 1014.3 |
| 20260505123005 | 15 | 186 | 1.6 | 11.3 | 0.00 | 0.00 | 0.00 | 63 | 1014.3 |
| 20260505121503 | 15 | 223 | 4.8 | 8.0 | 0.00 | 0.00 | 0.00 | 62 | 1014.4 |
| 20260505120004 | 15 | 210 | 1.6 | 12.9 | 0.00 | 0.00 | 0.00 | 63 | 1014.4 |
| 20260505114503 | 14 | 211 | 3.2 | 11.3 | 0.00 | 0.00 | 0.00 | 64 | 1014.5 |
| 20260505113105 | 13 | 169 | 4.8 | 14.5 | 0.00 | 0.00 | 0.00 | 65 | 1014.6 |
| 20260505111557 | 13 | 186 | 4.8 | 11.3 | 0.00 | 0.00 | 0.00 | 66 | 1014.7 |
| 20260505110116 | 13 | 156 | 4.8 | 11.3 | 0.00 | 0.00 | 0.00 | 68 | 1014.7 |
| 20260505101549 | 12 | 314 | 1.6 | 11.3 | 0.00 | 0.00 | 0.00 | 74 | 1015.0 |
| 20260505100048 | 12 | 183 | 1.6 | 6.4 | 0.00 | 0.00 | 0.00 | 74 | 1015.1 |
| 20260505094545 | 12 | 208 | 3.2 | 9.7 | 0.00 | 0.00 | 0.00 | 75 | 1015.0 |
| 20260505093043 | 12 | 193 | 3.2 | 11.3 | 0.00 | 0.00 | 0.00 | 76 | 1015.1 |
| 20260505091541 | 12 | 120 | 3.2 | 8.0 | 0.00 | 0.00 | 0.00 | 77 | 1015.1 |
| 20260505090040 | 11 | 187 | 3.2 | 6.4 | 0.00 | 0.00 | 0.00 | 79 | 1015.2 |
| 20260505084535 | 11 | 160 | 3.2 | 6.4 | 0.00 | 0.00 | 0.00 | 79 | 1015.3 |
| 20260505083032 | 11 | 154 | 3.2 | 6.4 | 0.00 | 0.00 | 0.00 | 81 | 1015.3 |
| 20260505081541 | 10 | 10 | 0.0 | 3.2 | 0.00 | 0.00 | 0.00 | 82 | 1015.3 |
| 20260505080026 | 10 | 158 | 1.6 | 6.4 | 0.00 | 0.00 | 0.00 | 81 | 1015.3 |
| 20260505074526 | 9 | 188 | 3.2 | 8.0 | 0.00 | 0.00 | 0.00 | 80 | 1015.4 |
| 20260505073034 | 10 | 218 | 0.0 | 11.3 | 0.00 | 0.00 | 0.00 | 81 | 1015.4 |
| 20260505071542 | 8 | 213 | 1.6 | 8.0 | 0.00 | 0.00 | 0.00 | 83 | 1015.4 |
| 20260505070022 | 9 | 153 | 1.6 | 6.4 | 0.00 | 0.00 | 0.00 | 84 | 1015.3 |
| 20260505064524 | 9 | 162 | 1.6 | 9.7 | 0.00 | 0.00 | 0.00 | 84 | 1015.5 |
| 20260505063018 | 9 | 158 | 3.2 | 11.3 | 0.00 | 0.00 | 0.00 | 85 | 1015.4 |
| 20260505061515 | 8 | 210 | 1.6 | 6.4 | 0.00 | 0.00 | 0.00 | 90 | 1015.4 |
| 20260505060012 | 8 | 183 | 0.0 | 6.4 | 0.00 | 0.00 | 0.00 | 91 | 1015.5 |
| 20260505054511 | 8 | 241 | 0.0 | 4.8 | 0.00 | 0.03 | 0.00 | 92 | 1015.5 |
| 20260505053012 | 8 | 206 | 0.0 | 4.8 | 0.00 | 0.03 | 0.00 | 92 | 1015.6 |